Location: Passau
(48.5830°N, 13.4830°E)
Time: 02:30:59
(UTC+01:00)

NOAA 19 - Pass Details

Date: 29 November 2021
Orbit: 841 x 860 km, 99.2° (Epoch: 17 January)

Event Time Altitude Azimuth Distance (km) Brightness Sun altitude
Rises 20:35:20 0° 226° (SW) 3,387 8.7 -42.3°
Reaches altitude 10° 20:40:33 10° 269° (W) 2,463 8.2 -43.1°
Maximum altitude 20:41:09 10° 276° (W) 2,451 8.2 -43.2°
Drops below altitude 10° 20:41:46 10° 282° (WNW) 2,465 8.2 -43.3°
Sets 20:47:03 0° 325° (NW) 3,413 8.9 -44.2°
